This is the latest recevied weather packets stored in our database for station/object WO5CID. If no packets are shown the sender has not sent any weather packets the latest 10 day(s).
| Time | Temp. | Humidity | Pressure | Rain* | Wind** | Luminosity | Snow |
|---|---|---|---|---|---|---|---|
| 1778110382 | 32.22° C | 41% | 1014.2 hPa | 0 mm | - | 41 W/m² | - |
| 1778110079 | 32.22° C | 41% | 1013.9 hPa | 0 mm | - | 48 W/m² | - |
| 1778109774 | 32.22° C | 41% | 1013.7 hPa | 0 mm | - | 51 W/m² | - |
| 1778109471 | 32.78° C | 41% | 1013.8 hPa | 0 mm | - | 51 W/m² | - |
| 1778109170 | 32.78° C | 40% | 1013.7 hPa | 0 mm | - | 48 W/m² | - |
| 1778108866 | 32.78° C | 40% | 1013.9 hPa | 0 mm | - | 57 W/m² | - |
| 1778108563 | 32.78° C | 39% | 1013.7 hPa | 0 mm | - | 65 W/m² | - |
| 1778108260 | 33.33° C | 38% | 1013.8 hPa | 0 mm | - | 70 W/m² | - |
| 1778107957 | 33.33° C | 38% | 1013.8 hPa | 0 mm | - | 81 W/m² | - |
| 1778107653 | 33.89° C | 37% | 1013.9 hPa | 0 mm | - | 86 W/m² | - |
| 1778107351 | 33.89° C | 38% | 1013.8 hPa | 0 mm | - | 98 W/m² | - |
| 1778107047 | 33.89° C | 37% | 1013.6 hPa | 0 mm | - | 158 W/m² | - |
| 1778106742 | 34.44° C | 36% | 1013.7 hPa | 0 mm | - | 182 W/m² | - |
| 1778106440 | 34.44° C | 36% | 1013.5 hPa | 0 mm | - | 206 W/m² | - |
| 1778106135 | 35° C | 37% | 1013.6 hPa | 0 mm | - | 245 W/m² | - |
| 1778105833 | 34.44° C | 35% | 1013.8 hPa | 0 mm | - | 204 W/m² | - |
| 1778105531 | 35° C | 34% | 1013.8 hPa | 0 mm | - | 175 W/m² | - |
| 1778105228 | 35° C | 33% | 1013.7 hPa | 0 mm | - | 146 W/m² | - |
| 1778104923 | 35° C | 35% | 1013.6 hPa | 0 mm | - | 276 W/m² | - |
| 1778104620 | 35° C | 35% | 1013.7 hPa | 0 mm | - | 304 W/m² | - |
| 1778104315 | 35° C | 34% | 1013.9 hPa | 0 mm | - | 288 W/m² | - |
| 1778104012 | 34.44° C | 35% | 1013.8 hPa | 0 mm | - | 246 W/m² | - |
| 1778103709 | 35° C | 36% | 1014 hPa | 0 mm | - | 256 W/m² | - |
| 1778103408 | 35° C | 35% | 1013.8 hPa | 0 mm | - | 299 W/m² | - |
| 1778103105 | 34.44° C | 35% | 1014 hPa | 0 mm | - | 333 W/m² | - |
* Rain latest hour (hover to see other rain measurements)
** Current wind speed in m/s (hover to see current wind gust speed)